FW8513 Weather Reports


time (UTC)temp
F
wind
direction
speed
knots
gust
knots
rain 1hr
in
rain 24hr
in
rain mn
in
humidity
%
barometer
mb
20260504044543 53 20 11.3 20.0 0.00 0.00 0.00 40 1012.0
20260504043044 54 46 11.3 20.9 0.00 0.00 0.00 39 1011.4
20260504041539 55 32 9.6 19.1 0.00 0.00 0.00 40 1010.8
20260504040046 55 13 5.2 9.6 0.00 0.00 0.00 40 1010.2
20260504034544 57 16 7.0 11.3 0.00 0.00 0.00 39 1009.9
20260504033043 58 21 8.7 13.0 0.00 0.00 0.00 37 1009.4
20260504031540 59 43 8.7 13.9 0.00 0.00 0.00 36 1009.1
20260504030045 61 35 8.7 19.1 0.00 0.00 0.00 35 1008.6
20260504024537 62 35 11.3 16.5 0.00 0.00 0.00 33 1008.4
20260504023043 64 28 6.1 11.3 0.00 0.00 0.00 30 1008.2
20260504021538 66 34 7.8 18.2 0.00 0.00 0.00 27 1007.9
20260504020046 69 42 6.1 10.4 0.00 0.00 0.00 22 1007.7
20260504014548 70 34 7.0 10.4 0.00 0.00 0.00 20 1007.7
20260504013048 71 44 5.2 9.6 0.00 0.00 0.00 20 1007.9
20260504011546 71 14 5.2 11.3 0.00 0.00 0.00 20 1008.0
20260504010041 72 10 7.0 12.2 0.00 0.00 0.00 19 1008.0
20260504004539 72 26 7.0 12.2 0.00 0.00 0.00 19 1008.2
20260504003037 73 20 7.0 13.9 0.00 0.00 0.00 20 1008.3
20260504001539 73 352 10.4 14.8 0.00 0.00 0.00 20 1008.3
20260504000047 73 14 8.7 12.2 0.00 0.00 0.00 19 1008.5
20260503234539 74 5 9.6 16.5 0.00 0.00 0.00 20 1008.7
20260503233037 74 352 10.4 16.5 0.00 0.00 0.00 20 1008.6
20260503231537 74 30 8.7 15.6 0.00 0.00 0.00 19 1008.8
20260503230059 73 360 8.7 18.2 0.00 0.00 0.00 20 1008.7
20260503224542 73 317 7.0 14.8 0.00 0.00 0.00 19 1009.1
20260503223039 73 42 10.4 18.2 0.00 0.00 0.00 21 1009.4
20260503221539 73 300 3.5 17.4 0.00 0.00 0.00 19 1009.3
20260503220044 73 310 7.0 13.9 0.00 0.00 0.00 20 1009.6
20260503214543 73 304 9.6 16.5 0.00 0.00 0.00 19 1009.7
20260503213038 72 40 4.3 15.6 0.00 0.00 0.00 20 1009.9
20260503211549 71 276 6.1 12.2 0.00 0.00 0.00 20 1010.0
20260503210037 71 352 7.0 14.8 0.00 0.00 0.00 20 1010.3
20260503204543 71 349 3.5 13.0 0.00 0.00 0.00 20 1010.7
20260503203046 71 5 8.7 15.6 0.00 0.00 0.00 20 1010.8
20260503201538 71 313 3.5 13.9 0.00 0.00 0.00 20 1010.9
20260503200052 70 331 10.4 17.4 0.00 0.00 0.00 21 1010.8
20260503194537 69 267 4.3 9.6 0.00 0.00 0.00 22 1011.1
20260503193055 69 333 4.3 13.0 0.00 0.00 0.00 23 1011.7
20260503191543 69 343 10.4 16.5 0.00 0.00 0.00 23 1011.9
20260503190044 68 32 4.3 10.4 0.00 0.00 0.00 24 1012.0
20260503184549 68 315 8.7 15.6 0.00 0.00 0.00 24 1012.3
20260503183043 68 346 4.3 15.6 0.00 0.00 0.00 25 1012.4
20260503181552 67 355 7.8 14.8 0.00 0.00 0.00 25 1012.5
20260503180049 66 296 2.6 10.4 0.00 0.00 0.00 25 1012.7
20260503174545 67 18 7.8 13.0 0.00 0.00 0.00 25 1013.1
20260503173056 66 5 3.5 15.6 0.00 0.00 0.00 27 1013.3
20260503171539 65 26 5.2 14.8 0.00 0.00 0.00 27 1013.2
20260503081543 43 179 2.6 6.1 0.00 0.00 0.00 75 1015.1
20260503071546 44 182 3.5 6.1 0.00 0.00 0.00 74 1015.3
20260503054542 45 167 4.3 6.1 0.00 0.00 0.00 72 1015.7
20260503053036 45 209 1.7 3.5 0.00 0.00 0.00 71 1015.8